Location: Tucson
(32.2217°N, 110.9265°W)
Time: 02:41:52
(UTC-07:00)

Tiros 1 - Pass Details

Date: 28 October 2021
Orbit: 630 x 663 km, 48.4° (Epoch: 07 December)

Event Time Altitude Azimuth Distance (km) Brightness Sun altitude
Rises 06:43:53 0° 197° (SSW) 2,975 10.6 0.4°
Reaches altitude 10° 06:46:35 10° 184° (S) 2,067 9.9 1.0°
Maximum altitude 06:50:23 24° 131° (SE) 1,365 10.0 1.7°
Drops below altitude 10° 06:54:12 10° 78° (ENE) 2,072 11.0 2.5°
Sets 06:56:54 0° 64° (ENE) 2,983 11.4 3.1°
